Weather Roundup
Issued by NWS Chicago, IL

Home | Current Version | Previous Version | Graphics & Text | Print | Product List | Glossary On
Versions: 1 2 3 4 5 6 7 8 9 10 11 12 13 14 15 16 17 18 19 20 21 22 23 24 25 26 27 28 29 30 31 32 33 34 35 36 37 38 39 40 41 42 43 44 45 46 47 48 49 50
963
NZUS59 KLOT 242004
HRRLOT

CHICAGO AREA WEATHER ROUNDUP
NATIONAL WEATHER SERVICE CHICAGO/ROMEOVILLE IL
300 PM CDT WED MAY 24 2017

NOTE: "FAIR" INDICATES FEW OR NO CLOUDS BELOW 12,000 FEET WITH NO
SIGNIFICANT WEATHER AND/OR OBSTRUCTIONS TO VISIBILITY.

* THESE STATIONS ARE NOT UNDER NWS QUALITY CONTROL. THEY ALSO MAY NOT
  REPORT WEATHER SUCH AS PRECIPITATION OR FOG.

ILZ005-006-012>014-019>023-242100-
NORTHEAST ILLINOIS

CITY           SKY/WX    TMP DP  RH WIND       PRES   REMARKS
OHARE          CLOUDY    61  51  70 NE15G25   29.55S
MIDWAY         CLOUDY    60  52  74 N15       29.54S
AURORA         CLOUDY    62  53  72 N15       29.56S
LANSING*       PTSUNNY   57  53  86 N12       29.54S
JOLIET*        CLOUDY    62  55  75 N14G20    29.54S
WAUKEGAN       CLOUDY    59  51  75 N15G28    29.56S
DUPAGE AIRPORT CLOUDY    61  53  75 N16       29.55S
WHEELING       CLOUDY    60  53  77 N12G23    29.56F
MORRIS*        CLOUDY    61  53  75 N6        29.53F
LEWIS AIRPORT* CLOUDY    60  56  85 NE14G21   29.54S
NORTHERLY ISL    N/A     55  49  80 NW17        N/A
$$

WIZ051-052-058>065-066-070>072-242100-
SOUTHEAST WISCONSIN

CITY           SKY/WX    TMP DP  RH WIND       PRES   REMARKS
MILWAUKEE      CLOUDY    57  52  83 N17G25    29.60S
KENOSHA*       CLOUDY    61  52  72 N22G29    29.58S
RACINE*        MOSUNNY   56  49  77 N17G25    29.60F
WAUKESHA       CLOUDY    57  50  77 N14       29.61F
$$

INZ001>003-010>013-019-020-242100-
NORTHWEST INDIANA

CITY           SKY/WX    TMP DP  RH WIND       PRES   REMARKS
GARY*          CLOUDY    57  50  77 N14       29.54S
MICHIGAN CITY* NOT AVBL
RENSSELAER*    NOT AVBL
VALPARAISO     CLOUDY    63  55  75 N8        29.51F
$$

LMZ740>746-242100-
SOUTHERN LAKE MICHIGAN

STATION/POSITION TIME  SKY/WX   TEMP WIND        PRES    VSBY
                                AIR  DIR/SP/G
                 (UTC)          (F)  (DEG/KT/KT) (MB)    (MI)
HARRISON CRIB    1940            52  350/ 20/ 24   N/A
BURNHAM HARBOR   2000            54  340/ 14/ 19   N/A
CALUMET HARBOR   1930            54  330/ 13/ 19 1000.1S
BURNS HARBOR     1940            52   10/  3/  5 1000.7R
MICHIGAN CITY    1940            53   20/ 11/ 13   N/A
$$

ABBREVIATIONS USED IN REMARKS
   TC - TEMPERATURE IN CELSIUS
  WCI - WIND CHILL INDEX
   HX - HEAT INDEX
  VSB - VISIBILITY
$$




USA.gov is the U.S. government's official web portal to all federal, state and local government web resources and services.